Date String (YYYY-MM-DD hh:mm:ss) UTC,Instrument flags,Ambient pressure (hPa),Sample flow (lpm),Bypass flow (lpm),Sample temperature (°C),Ambient temperature (°C),ASC tube jacket temperature (°C),LED temperature (°C),Box temperature (°C),Sample RH (%),Span deviation,Mass concentration (μg/m³),Mass concentration (μg/m³),Mass concentration (μg/m³)
DateTimeUTC,F1_M11,P_M11,Q1_M11,Q2_M11,T1_M11,T2_M11,T3_M11,T4_M11,T5_M11,U1_M11,ZSPAN_M11,X0_M11,X2_M11,X1_M11
2022-03-05 06:00:00,,0814.9,5.00,0.00,27.7,26.8,00.0,36.8,29.5,17.2,0000.0,0006.42,0003.49,0002.79
2022-03-05 06:01:00,,0814.8,5.00,0.00,27.7,26.8,00.0,36.8,29.4,17.2,0000.0,0006.35,0003.45,0002.73
2022-03-05 06:02:00,,0814.9,5.00,0.00,27.7,26.8,00.0,36.8,29.4,17.3,0000.0,0006.06,0003.37,0002.66
2022-03-05 06:03:00,,0814.9,5.00,0.00,27.7,26.8,00.0,36.8,29.4,17.4,0000.0,0005.90,0003.34,0002.59
2022-03-05 06:04:00,,0815.0,5.01,0.00,27.7,26.8,00.0,36.8,29.4,17.5,0000.0,0005.69,0003.28,0002.52
2022-03-05 06:05:00,,0815.1,5.00,0.00,27.6,26.7,00.0,36.8,29.4,17.5,0000.0,0005.58,0003.20,0002.42
2022-03-05 06:06:00,,0815.1,5.01,0.00,27.6,26.7,00.0,36.8,29.3,17.6,0000.0,0005.47,0003.16,0002.33
2022-03-05 06:07:00,,0815.1,4.99,0.00,27.6,26.7,00.0,36.8,29.3,17.6,0000.0,0005.35,0003.15,0002.29
2022-03-05 06:08:00,,0815.1,4.99,0.00,27.6,26.7,00.0,36.7,29.3,17.7,0000.0,0005.20,0003.14,0002.27
2022-03-05 06:09:00,,0815.0,5.01,0.00,27.6,26.7,00.0,36.7,29.3,17.7,0000.0,0005.25,0003.14,0002.27
2022-03-05 06:10:00,,0815.0,5.01,0.00,27.6,26.7,00.0,36.7,29.3,17.5,0000.0,0005.38,0003.16,0002.26
2022-03-05 06:11:00,,0814.9,4.99,0.00,27.6,26.7,00.0,36.7,29.3,17.3,0000.0,0005.36,0003.14,0002.22
2022-03-05 06:12:00,,0815.0,5.00,0.00,27.5,26.6,00.0,36.7,29.3,17.3,0000.0,0005.32,0003.14,0002.22
2022-03-05 06:13:00,,0814.9,4.99,0.00,27.5,26.6,00.0,36.7,29.3,17.4,0000.0,0005.43,0003.17,0002.22
2022-03-05 06:14:00,,0815.1,5.01,0.00,27.5,26.6,00.0,36.7,29.2,17.4,0000.0,0005.52,0003.18,0002.21
2022-03-05 06:15:00,,0814.9,5.00,0.00,27.5,26.6,00.0,36.7,29.2,17.5,0000.0,0005.56,0003.18,0002.18
2022-03-05 06:16:00,,0815.0,5.00,0.00,27.5,26.6,00.0,36.7,29.2,17.5,0000.0,0005.55,0003.18,0002.16
2022-03-05 06:17:00,,0815.0,5.00,0.00,27.5,26.6,00.0,36.6,29.2,17.5,0000.0,0005.53,0003.16,0002.12
2022-03-05 06:18:00,,0815.0,5.01,0.00,27.5,26.6,00.0,36.6,29.2,17.4,0000.0,0005.91,0003.15,0002.06
2022-03-05 06:19:00,,0815.1,4.99,0.00,27.5,26.6,00.0,36.6,29.2,17.4,0000.0,0006.15,0003.16,0002.01
2022-03-05 06:20:00,,0815.0,5.00,0.00,27.5,26.6,00.0,36.6,29.2,17.2,0000.0,0006.40,0003.13,0001.94
2022-03-05 06:21:00,,0815.1,5.00,0.00,27.5,26.6,00.0,36.6,29.2,17.2,0000.0,0006.56,0003.04,0001.87
2022-03-05 06:22:00,,0815.0,5.01,0.00,27.5,26.6,00.0,36.6,29.2,17.2,0000.0,0006.59,0003.02,0001.82
2022-03-05 06:23:00,,0815.0,5.00,0.00,27.5,26.6,00.0,36.6,29.2,17.2,0000.0,0006.85,0003.03,0001.79
2022-03-05 06:24:00,,0815.0,4.98,0.00,27.4,26.6,00.0,36.6,29.2,17.2,0000.0,0007.48,0002.90,0001.73
2022-03-05 06:25:00,,0814.9,5.01,0.00,27.4,26.6,00.0,36.6,29.2,17.2,0000.0,0007.38,0002.82,0001.68
2022-03-05 06:26:00,,0814.9,5.00,0.00,27.4,26.6,00.0,36.6,29.2,17.2,0000.0,0007.22,0002.71,0001.62
2022-03-05 06:27:00,,0814.9,4.99,0.00,27.4,26.6,00.0,36.5,29.2,17.2,0000.0,0007.23,0002.66,0001.58
2022-03-05 06:28:00,,0814.8,5.01,0.00,27.4,26.6,00.0,36.5,29.2,17.1,0000.0,0007.17,0002.62,0001.53
2022-03-05 06:29:00,,0814.8,4.99,0.00,27.4,26.6,00.0,36.5,29.1,17.0,0000.0,0006.75,0002.54,0001.49
2022-03-05 06:30:00,,0814.9,4.99,0.00,27.4,26.5,00.0,36.5,29.2,16.9,0000.0,0006.55,0002.50,0001.45
2022-03-05 06:31:00,,0814.9,5.00,0.00,27.4,26.5,00.0,36.5,29.2,16.9,0000.0,0006.48,0002.49,0001.42
2022-03-05 06:32:00,,0814.8,5.01,0.00,27.4,26.5,00.0,36.5,29.2,16.9,0000.0,0007.20,0002.48,0001.40
2022-03-05 06:33:00,,0814.8,5.00,0.00,27.4,26.5,00.0,36.5,29.2,16.9,0000.0,0007.54,0002.49,0001.39
2022-03-05 06:34:00,,0814.8,4.99,0.00,27.4,26.5,00.0,36.5,29.2,16.9,0000.0,0007.57,0002.50,0001.36
2022-03-05 06:35:00,,0814.8,5.00,0.00,27.4,26.5,00.0,36.5,29.2,16.9,0000.0,0006.87,0002.54,0001.32
2022-03-05 06:36:00,,0814.8,5.00,0.00,27.4,26.5,00.0,36.5,29.2,16.8,0000.0,0007.01,0002.55,0001.27
2022-03-05 06:37:00,,0814.9,5.00,0.00,27.4,26.5,00.0,36.5,29.2,16.8,0000.0,0007.18,0002.63,0001.24
2022-03-05 06:38:00,,0814.8,4.99,0.00,27.4,26.5,00.0,36.5,29.2,16.8,0000.0,0007.15,0002.63,0001.22
2022-03-05 06:39:00,,0814.9,4.99,0.00,27.4,26.5,00.0,36.4,29.1,16.9,0000.0,0007.06,0002.59,0001.20
2022-03-05 06:40:00,,0814.8,5.02,0.00,27.4,26.5,00.0,36.4,29.2,16.9,0000.0,0007.21,0002.60,0001.19
2022-03-05 06:41:00,,0814.9,4.99,0.00,27.4,26.5,00.0,36.4,29.2,16.8,0000.0,0007.26,0002.57,0001.19
2022-03-05 06:42:00,,0814.9,5.00,0.00,27.4,26.5,00.0,36.4,29.2,16.8,0000.0,0007.25,0002.58,0001.18
2022-03-05 06:43:00,,0814.9,5.02,0.00,27.4,26.5,00.0,36.4,29.1,16.7,0000.0,0006.34,0002.61,0001.16
2022-03-05 06:44:00,,0814.8,4.99,0.00,27.4,26.5,00.0,36.4,29.1,16.7,0000.0,0005.71,0002.61,0001.15
2022-03-05 06:45:00,,0814.9,5.00,0.00,27.3,26.5,00.0,36.4,29.1,16.6,0000.0,0005.62,0002.56,0001.13
2022-03-05 06:46:00,,0814.9,4.99,0.00,27.3,26.5,00.0,36.4,29.1,16.6,0000.0,0005.81,0002.57,0001.13
2022-03-05 06:47:00,,0814.9,4.99,0.00,27.3,26.4,00.0,36.4,29.1,16.5,0000.0,0006.59,0002.64,0001.17
2022-03-05 06:48:00,,0814.9,5.01,0.00,27.3,26.4,00.0,36.4,29.1,16.5,0000.0,0006.80,0002.71,0001.19
2022-03-05 06:49:00,,0814.9,5.01,0.00,27.3,26.4,00.0,36.4,29.1,16.7,0000.0,0007.07,0002.78,0001.20
2022-03-05 06:50:00,,0814.9,4.99,0.00,27.3,26.4,00.0,36.4,29.1,16.6,0000.0,0007.29,0002.87,0001.23
2022-03-05 06:51:00,,0814.8,4.99,0.00,27.3,26.4,00.0,36.4,29.1,16.6,0000.0,0007.37,0002.97,0001.26
2022-03-05 06:52:00,,0814.9,5.01,0.00,27.3,26.4,00.0,36.4,29.1,16.3,0000.0,0007.41,0003.02,0001.30
2022-03-05 06:53:00,,0815.0,5.00,0.00,27.3,26.4,00.0,36.4,29.1,16.2,0000.0,0007.49,0003.07,0001.35
2022-03-05 06:54:00,,0814.9,4.99,0.00,27.3,26.4,00.0,36.4,29.1,16.3,0000.0,0007.69,0003.10,0001.39
2022-03-05 06:55:00,,0814.9,5.01,0.00,27.3,26.4,00.0,36.4,29.1,16.5,0000.0,0008.19,0003.17,0001.43
2022-03-05 06:56:00,,0814.9,4.99,0.00,27.3,26.5,00.0,36.3,29.1,16.6,0000.0,0008.74,0003.23,0001.45
2022-03-05 06:57:00,,0814.9,4.99,0.00,27.3,26.5,00.0,36.3,29.1,16.6,0000.0,0009.05,0003.27,0001.48
2022-03-05 06:58:00,,0814.9,5.01,0.00,27.3,26.5,00.0,36.3,29.2,16.6,0000.0,0008.66,0003.24,0001.47
2022-03-05 06:59:00,,0814.9,4.99,0.00,27.3,26.5,00.0,36.3,29.1,16.7,0000.0,0008.55,0003.19,0001.47
